Probability
0 0 0 0 0 0 0 0 0 0 0 0 0 0 0 0 0 0 3 3 29 32 32 39 45 45 48 48 48 45 42 39 35 32 29 29 29 29 23 26 23 23 23 26 26 23 19 16 10
0 0 0 0 0 0 0 0 0 0 0 0 0 0 0 0 0 3 3 6 26 35 32 35 39 42 42 42 42 39 39 39 32 26 19 23 19 19 16 10 19 16 16 19 23 19 13 13 16
0 0 0 0 0 0 0 0 0 0 0 0 0 0 0 0 0 3 3 10 23 29 29 35 35 35 39 39 39 35 35 35 35 23 19 19 16 13 16 13 10 13 16 13 16 16 13 6 10
0 0 0 0 0 0 0 0 0 0 0 0 0 0 0 0 0 3 3 13 19 23 23 32 35 32 32 29 29 32 29 32 32 23 19 19 19 16 10 13 13 13 13 13 10 13 13 6 6
0 0 0 0 0 0 0 0 0 0 0 0 0 0 0 0 0 0 0 6 10 16 26 29 29 29 29 29 29 29 26 26 26 19 19 16 16 16 13 13 13 16 16 13 16 6 10 10 6
0 0 0 0 0 0 0 0 0 0 0 0 0 0 0 0 3 3 0 3 10 19 23 26 29 29 29 29 29 26 26 26 26 19 19 16 19 16 13 10 10 16 16 16 16 10 13 6 6
0 0 0 0 0 0 0 0 0 0 0 0 0 0 0 3 3 3 3 3 10 16 19 19 23 29 29 29 29 26 26 26 23 23 19 16 16 19 13 6 10 10 13 13 13 6 10 6 6
0 0 0 0 0 0 0 0 0 0 0 0 0 0 0 3 3 3 6 6 6 10 16 16 16 13 19 19 26 26 26 23 23 23 10 3 3 6 16 3 6 10 10 6 6 6 6 3 6
0 0 0 0 0 0 0 0 0 0 0 0 0 0 0 3 3 3 6 6 6 10 13 16 16 16 13 10 13 13 10 10 6 0 0 0 0 0 0 0 3 6 10 6 3 6 6 0 0
0 0 0 0 0 0 0 0 0 0 0 0 0 0 0 0 3 3 6 6 6 6 13 13 13 13 10 6 6 10 6 3 0 0 0 0 0 0 0 0 0 0 3 0 3 3 3 0 0
0 0 0 0 0 0 0 0 0 0 0 0 0 0 0 0 0 3 3 3 6 6 13 13 10 10 10 6 10 10 10 3 0 0 0 0 0 0 0 0 0 0 0 0 0 0 0 0 0
0 0 0 0 0 0 0 0 0 0 0 0 0 0 0 0 0 0 0 3 3 3 10 10 10 10 10 6 6 6 10 3 3 0 0 0 0 0 0 0 0 0 0 0 0 0 0 0 0
0 0 0 0 0 0 0 0 0 0 0 0 0 0 0 0 0 0 0 0 0 0 3 6 10 10 10 10 6 6 6 6 0 0 0 0 0 0 0 0 0 0 0 0 0 0 0 0 0
0 0 0 0 0 0 0 0 0 0 0 0 0 0 0 0 0 0 0 0 0 0 0 0 6 13 13 10 10 6 6 3 6 3 0 0 0 0 0 0 0 0 0 0 0 0 0 0 0
0 0 0 0 0 0 0 0 0 0 0 0 0 0 0 0 0 0 0 0 0 0 0 0 0 6 6 13 10 6 6 3 3 3 0 0 0 0 0 0 0 0 0 0 0 0 0 0 0
0 0 0 0 0 0 0 0 0 0 0 0 0 0 0 0 0 0 0 0 0 0 0 0 0 0 6 6 10 10 6 6 0 0 0 0 0 0 0 0 0 0 0 0 0 0 0 0 0
0 0 0 0 0 0 0 0 0 0 0 0 0 0 0 0 0 0 0 0 0 0 0 0 0 0 0 0 3 3 3 6 3 0 0 0 0 0 0 0 0 0 0 0 0 0 0 0 0
0 0 0 0 0 0 0 0 0 0 0 0 0 0 0 0 0 0 0 0 0 0 0 0 0 0 0 0 0 3 3 0 0 0 0 0 0 0 0 0 0 0 0 0 0 0 0 0 0
0 0 0 0 0 0 0 0 0 0 0 0 0 0 0 0 0 0 0 0 0 0 0 0 0 0 0 0 0 0 0 0 0 0 0 0 0 0 0 0 0 0 0 0 0 0 0 0 0
0 0 0 0 0 0 0 0 0 0 0 0 0 0 0 0 0 0 0 0 0 0 0 0 0 0 0 0 0 0 0 0 0 0 0 0 0 0 0 0 0 0 0 0 0 0 0 0 0
0 0 0 0 0 0 0 0 0 0 0 0 0 0 0 0 0 0 0 0 0 0 0 0 0 0 0 0 0 0 0 0 0 0 0 0 0 0 0 0 0 0 0 0 0 0 0 0 0
0 0 0 0 0 0 0 0 0 0 0 0 0 0 0 0 0 0 0 0 0 0 0 0 0 0 0 0 0 0 0 0 0 0 0 0 0 0 0 0 0 0 0 0 0 0 0 0 0
0 0 0 0 0 0 0 0 0 0 0 0 0 0 0 0 0 0 0 0 0 0 0 0 0 0 0 0 0 0 0 0 0 0 0 0 0 0 0 0 0 0 0 0 0 0 0 0 0
0 0 0 0 0 0 0 0 0 0 0 0 0 0 0 0 0 0 0 0 0 0 0 0 0 0 0 0 0 0 0 0 0 0 0 0 0 0 0 0 0 0 0 0 0 0 0 0 0
0 0 0 0 0 0 0 0 0 0 0 0 0 0 0 0 0 0 0 0 0 0 0 0 0 0 0 0 0 0 0 0 0 0 0 0 0 0 0 0 0 0 0 0 0 0 0 0 0
0 0 0 0 0 0 0 0 0 0 0 0 0 0 0 0 0 0 0 0 0 0 0 0 0 0 0 0 0 0 0 0 0 0 0 0 0 0 0 0 0 0 0 0 0 0 0 0 0
0 0 0 0 0 0 0 0 0 0 0 0 0 0 0 0 0 0 0 0 0 0 0 0 0 0 0 0 0 0 0 0 0 0 0 0 0 0 0 0 0 0 0 0 0 0 0 0 0
0 0 0 0 0 0 0 0 0 0 0 0 0 0 0 0 0 0 0 0 0 0 0 0 0 0 0 0 0 0 0 0 0 0 0 0 0 0 0 0 0 0 0 0 0 0 0 0 0
0 0 0 0 0 0 0 0 0 0 0 0 0 0 0 0 0 0 0 0 0 0 0 0 0 0 0 0 0 0 0 0 0 0 0 0 0 0 0 0 0 0 0 0 0 0 0 0 0
0 0 0 0 0 0 0 0 0 0 0 0 0 0 0 0 0 0 0 0 0 0 0 0 0 0 0 0 0 0 0 0 0 0 0 0 0 0 0 0 0 0 0 0 0 0 0 0 0
Height
5796 5798 5800 5803 5806 5808 5811 5815 5816 5818 5820 5823 5825 5827 5830 5831 5833 5837 5838 5839 5841 5843 5844 5845 5847 5848 5849 5850 5851 5852 5853 5854 5855 5855 5856 5857 5857 5858 5858 5858 5859 5859 5859 5859 5860 5860 5860 5860 5860
5790 5793 5796 5798 5801 5804 5808 5810 5811 5813 5816 5819 5821 5823 5825 5826 5829 5831 5833 5835 5837 5839 5841 5842 5843 5845 5846 5847 5848 5849 5850 5851 5851 5852 5853 5853 5854 5854 5855 5855 5855 5856 5856 5856 5856 5857 5857 5857 5857
5785 5787 5791 5793 5796 5800 5803 5804 5805 5808 5811 5815 5817 5819 5821 5823 5825 5828 5829 5831 5834 5836 5837 5838 5840 5841 5842 5843 5845 5846 5846 5847 5848 5849 5849 5850 5850 5851 5851 5851 5852 5852 5852 5853 5853 5853 5853 5853 5853
5780 5783 5786 5789 5792 5795 5797 5798 5800 5803 5807 5810 5812 5814 5817 5819 5822 5824 5825 5827 5830 5831 5833 5834 5836 5837 5839 5840 5841 5842 5843 5843 5844 5845 5845 5846 5846 5847 5847 5847 5848 5848 5848 5848 5849 5849 5849 5849 5849
5774 5777 5780 5783 5787 5790 5791 5793 5795 5799 5801 5804 5807 5810 5812 5815 5817 5819 5821 5823 5825 5827 5829 5830 5832 5833 5834 5836 5837 5838 5839 5839 5840 5841 5841 5842 5842 5843 5843 5843 5844 5844 5844 5844 5844 5844 5844 5844 5844
5769 5772 5775 5778 5782 5784 5786 5788 5790 5793 5796 5799 5802 5805 5807 5810 5812 5815 5816 5818 5821 5823 5825 5826 5828 5829 5830 5831 5832 5833 5834 5835 5836 5837 5837 5838 5838 5838 5839 5839 5839 5839 5839 5839 5839 5839 5839 5839 5839
5764 5766 5769 5773 5776 5779 5781 5782 5785 5788 5791 5794 5796 5799 5802 5805 5808 5810 5812 5814 5816 5818 5820 5822 5823 5824 5826 5827 5828 5829 5830 5831 5831 5832 5833 5833 5833 5834 5834 5834 5834 5834 5834 5834 5834 5833 5833 5833 5833
5756 5761 5764 5767 5770 5773 5775 5777 5780 5783 5786 5788 5791 5794 5797 5800 5803 5805 5807 5809 5812 5813 5815 5817 5818 5820 5821 5822 5823 5824 5825 5826 5826 5827 5827 5828 5828 5828 5828 5828 5828 5828 5828 5828 5828 5827 5827 5827 5827
5750 5755 5758 5762 5764 5767 5769 5772 5775 5778 5780 5783 5786 5789 5792 5795 5797 5800 5802 5804 5806 5808 5810 5812 5814 5815 5816 5817 5818 5819 5820 5821 5821 5822 5822 5823 5823 5823 5823 5822 5822 5822 5822 5821 5821 5821 5820 5820 5820
5744 5748 5753 5755 5757 5761 5763 5767 5770 5772 5775 5778 5780 5783 5786 5789 5792 5794 5797 5799 5801 5803 5805 5807 5808 5810 5811 5812 5813 5814 5815 5815 5816 5816 5816 5817 5817 5817 5816 5816 5816 5815 5815 5814 5813 5813 5813 5812 5812
5738 5742 5746 5748 5751 5754 5758 5761 5764 5766 5770 5773 5775 5778 5780 5783 5786 5788 5791 5794 5796 5798 5800 5801 5803 5804 5806 5807 5808 5808 5809 5810 5810 5810 5810 5810 5810 5810 5809 5809 5808 5808 5807 5806 5805 5805 5804 5804 5804
5732 5736 5738 5742 5745 5748 5752 5755 5758 5761 5765 5766 5769 5772 5774 5777 5780 5783 5785 5788 5790 5792 5794 5796 5797 5799 5800 5801 5802 5803 5803 5804 5804 5804 5804 5804 5803 5803 5802 5802 5801 5800 5799 5798 5797 5797 5796 5795 5795
5725 5729 5732 5736 5739 5742 5745 5749 5751 5755 5758 5760 5763 5766 5768 5771 5774 5776 5779 5781 5784 5786 5788 5790 5791 5793 5794 5795 5796 5796 5797 5797 5797 5797 5797 5797 5796 5795 5794 5794 5793 5792 5791 5790 5789 5788 5787 5787 5786
5718 5721 5725 5729 5732 5736 5739 5742 5745 5750 5751 5754 5757 5759 5762 5765 5767 5770 5772 5775 5778 5780 5782 5783 5785 5786 5787 5788 5789 5790 5790 5790 5790 5790 5790 5789 5788 5787 5786 5785 5784 5783 5782 5781 5780 5779 5778 5777 5776
5710 5714 5718 5722 5726 5729 5732 5736 5740 5743 5744 5747 5750 5753 5756 5758 5760 5763 5766 5768 5771 5773 5775 5777 5778 5779 5780 5781 5782 5783 5783 5783 5783 5783 5782 5781 5780 5779 5778 5777 5775 5774 5773 5772 5770 5769 5768 5767 5766
5702 5706 5711 5716 5718 5721 5725 5730 5733 5735 5737 5741 5743 5746 5749 5751 5754 5757 5759 5762 5764 5766 5768 5770 5772 5773 5774 5774 5775 5775 5776 5776 5775 5775 5774 5773 5772 5771 5770 5768 5766 5765 5763 5762 5761 5759 5758 5757 5756
5694 5699 5704 5708 5711 5714 5717 5722 5726 5728 5730 5734 5737 5739 5742 5745 5748 5750 5753 5755 5757 5760 5761 5763 5765 5766 5767 5767 5768 5768 5768 5768 5768 5767 5766 5765 5764 5762 5761 5759 5757 5756 5754 5752 5751 5749 5748 5746 5745
5689 5692 5696 5700 5703 5706 5709 5714 5718 5721 5723 5727 5730 5733 5736 5739 5742 5744 5746 5748 5751 5753 5755 5756 5758 5759 5760 5760 5760 5761 5760 5760 5760 5759 5758 5757 5755 5754 5752 5750 5748 5746 5745 5742 5741 5739 5737 5736 5734
5680 5684 5688 5692 5695 5698 5701 5706 5711 5714 5717 5720 5723 5726 5729 5732 5735 5737 5739 5742 5744 5746 5748 5749 5751 5752 5753 5753 5753 5753 5753 5752 5752 5751 5749 5748 5747 5745 5743 5741 5739 5737 5735 5733 5731 5729 5727 5725 5723
5671 5675 5680 5683 5687 5690 5693 5698 5703 5707 5710 5714 5717 5720 5723 5725 5728 5730 5733 5735 5737 5739 5741 5743 5744 5745 5745 5745 5745 5745 5745 5744 5743 5742 5741 5740 5738 5737 5735 5733 5730 5728 5726 5724 5722 5720 5718 5715 5713
5663 5668 5672 5675 5679 5682 5685 5690 5695 5700 5703 5706 5710 5713 5715 5718 5721 5723 5726 5728 5730 5732 5734 5735 5736 5737 5737 5737 5737 5737 5736 5735 5735 5734 5732 5731 5729 5728 5726 5724 5722 5720 5718 5715 5713 5710 5708 5705 5703
5656 5660 5664 5667 5671 5674 5678 5681 5689 5692 5696 5699 5703 5706 5708 5711 5713 5716 5719 5721 5723 5725 5727 5728 5729 5729 5730 5730 5729 5729 5728 5727 5726 5725 5724 5722 5721 5719 5717 5715 5713 5711 5709 5706 5704 5701 5698 5695 5693
5648 5652 5655 5659 5662 5666 5670 5673 5680 5685 5688 5692 5696 5698 5701 5703 5706 5709 5711 5714 5716 5717 5719 5720 5721 5722 5722 5722 5721 5721 5720 5719 5718 5716 5715 5714 5712 5710 5708 5706 5704 5702 5700 5697 5694 5691 5688 5685 5682
5639 5644 5647 5650 5653 5657 5664 5666 5671 5677 5681 5685 5688 5691 5693 5696 5698 5701 5703 5706 5707 5709 5711 5712 5713 5713 5714 5714 5713 5712 5711 5710 5709 5708 5707 5705 5703 5701 5699 5697 5695 5693 5690 5687 5685 5682 5678 5675 5672
5631 5636 5639 5641 5644 5650 5657 5658 5664 5669 5673 5677 5680 5683 5686 5688 5691 5693 5696 5698 5700 5701 5703 5704 5705 5705 5705 5705 5705 5704 5703 5702 5701 5699 5698 5696 5694 5692 5690 5687 5685 5683 5680 5677 5675 5672 5668 5665 5662
5623 5628 5632 5636 5639 5644 5648 5650 5657 5661 5664 5668 5672 5675 5678 5681 5683 5685 5688 5690 5692 5693 5695 5696 5696 5697 5697 5697 5696 5695 5694 5693 5692 5690 5689 5687 5685 5682 5680 5678 5675 5673 5670 5667 5665 5662 5659 5656 5652
5614 5618 5625 5628 5631 5635 5639 5645 5649 5653 5656 5660 5664 5667 5670 5673 5675 5678 5680 5682 5684 5685 5686 5687 5688 5688 5688 5688 5687 5686 5685 5684 5683 5681 5679 5677 5675 5673 5671 5668 5665 5663 5660 5657 5655 5652 5649 5646 5643
5606 5611 5616 5620 5624 5628 5633 5638 5642 5646 5649 5653 5656 5659 5662 5665 5667 5670 5672 5674 5675 5677 5678 5679 5679 5680 5680 5679 5678 5677 5676 5675 5673 5672 5670 5668 5665 5663 5661 5658 5656 5653 5651 5648 5645 5643 5640 5638 5635
5599 5603 5607 5612 5616 5621 5626 5633 5635 5638 5641 5645 5648 5652 5654 5657 5660 5662 5664 5665 5667 5668 5669 5670 5671 5671 5671 5670 5669 5668 5666 5665 5664 5662 5660 5658 5656 5653 5651 5649 5647 5644 5642 5639 5636 5634 5632 5629 5626
5590 5595 5600 5605 5609 5614 5619 5626 5627 5630 5633 5637 5641 5644 5647 5649 5652 5654 5655 5657 5659 5660 5661 5662 5662 5662 5662 5661 5660 5659 5657 5656 5655 5653 5651 5648 5646 5644 5641 5639 5637 5635 5633 5630 5628 5626 5623 5621 5619
Wind_Speed
30 30 30 31 31 31 29 27 27 27 26 26 26 26 26 26 26 26 23 21 21 21 21 20 20 20 19 19 19 19 19 19 19 19 19 19 19 19 19 19 18 18 18 18 18 18 18 18 18
30 31 31 32 32 31 29 28 29 28 28 27 26 26 27 28 27 26 24 23 23 22 22 22 21 21 21 20 20 20 20 20 20 20 20 20 20 20 20 20 20 20 20 21 21 21 20 20 20
31 31 32 32 31 30 29 30 30 30 29 28 28 28 28 28 27 26 25 25 24 24 24 23 23 23 22 22 22 21 21 22 22 21 21 21 21 22 22 22 22 22 22 22 23 23 23 22 22
32 32 32 32 30 29 29 30 31 30 29 29 30 29 29 28 27 26 27 26 25 25 25 25 24 24 24 24 23 23 23 23 23 23 22 22 22 23 23 23 24 24 24 24 25 25 25 25 25
33 33 33 32 30 30 30 31 31 30 30 30 31 31 30 29 28 28 28 27 26 26 25 26 25 25 25 25 25 24 24 24 24 23 24 23 23 24 24 24 25 25 25 26 26 26 27 27 27
33 33 34 32 31 30 31 32 31 30 30 31 31 31 31 30 29 29 29 28 27 26 26 26 26 26 26 26 25 25 25 25 25 25 25 24 24 25 25 25 26 26 26 27 28 28 29 29 29
33 34 33 32 31 31 31 32 32 31 31 31 31 31 31 30 30 29 29 29 28 27 27 27 27 26 26 26 26 26 26 26 26 25 25 26 26 26 27 27 27 28 28 28 29 29 30 30 31
34 34 33 32 31 31 32 32 31 31 31 32 32 31 31 30 30 30 29 29 29 28 28 27 27 27 26 26 26 26 26 26 26 26 27 27 27 28 28 28 29 29 30 30 31 31 32 32 33
34 34 33 32 32 31 32 31 31 31 31 31 31 31 31 30 30 30 30 29 29 29 28 28 27 27 27 27 27 27 27 27 27 27 28 28 29 29 30 30 30 31 32 32 33 33 34 34 34
34 34 32 32 33 32 32 31 31 31 31 31 32 32 32 32 31 31 31 30 30 29 29 29 28 28 28 27 27 27 27 28 28 28 29 29 30 31 31 32 32 33 34 34 35 35 35 36 36
34 33 33 33 33 33 33 32 32 32 31 31 31 32 32 33 32 32 32 31 31 31 30 30 30 29 29 29 28 28 28 29 30 30 30 31 31 32 33 33 34 35 35 36 36 36 37 37 37
34 34 34 33 33 33 33 33 33 33 31 32 32 32 32 33 33 33 33 32 32 31 31 31 30 30 30 30 30 30 30 31 31 32 32 32 33 33 34 34 35 36 36 36 37 37 38 38 39
36 35 34 34 34 33 33 33 33 33 32 33 33 32 33 33 33 34 34 33 32 32 32 31 31 31 31 31 31 31 31 31 32 32 33 34 34 34 35 35 36 37 37 38 38 38 38 39 40
36 36 35 35 34 34 34 33 34 32 33 33 33 33 33 33 34 34 34 33 33 32 32 32 32 32 32 32 32 32 32 32 33 34 34 35 35 35 36 36 37 37 38 38 38 39 39 40 41
38 37 37 36 35 34 35 34 33 32 34 34 34 33 33 33 34 34 34 33 33 33 33 32 32 33 33 33 33 33 33 33 34 35 35 36 36 36 37 37 38 38 38 39 39 40 41 41 42
38 38 38 36 36 35 36 35 33 34 34 34 34 33 33 33 33 33 33 33 33 33 33 32 32 32 33 33 33 33 33 33 34 35 35 36 36 36 37 37 38 38 39 40 40 41 41 41 41
39 38 37 36 36 36 37 36 34 34 34 34 34 34 33 33 33 33 33 33 32 32 32 32 32 32 32 33 33 33 33 33 34 34 35 35 35 36 37 37 38 39 39 40 41 41 42 42 42
38 38 38 37 36 37 37 36 35 35 35 34 34 34 33 33 32 32 32 32 32 32 32 32 32 32 32 33 33 33 34 34 34 34 34 35 35 36 37 37 38 39 39 40 41 41 42 42 42
38 38 38 38 37 38 38 37 35 35 35 34 33 33 33 33 32 32 32 32 32 32 32 32 32 32 32 33 33 33 34 34 34 34 35 35 35 36 36 37 37 37 38 39 39 39 40 41 41
39 38 38 39 37 38 38 37 36 35 34 34 33 33 33 33 33 32 32 32 32 32 32 32 32 32 32 33 33 34 34 34 35 35 35 36 36 36 36 37 37 37 37 38 39 39 40 41 41
39 38 38 38 37 38 38 38 36 34 34 34 33 33 33 33 32 32 32 32 32 32 32 32 32 32 32 32 33 34 34 35 35 35 35 35 36 36 36 36 36 36 37 38 39 40 41 41 41
40 39 38 38 38 38 38 39 37 35 34 34 33 32 32 32 33 33 32 32 32 32 32 32 31 32 32 32 33 33 34 34 34 34 34 35 36 36 35 35 36 37 37 38 39 39 40 41 41
39 39 39 39 39 39 39 40 38 35 34 33 32 32 32 33 33 33 32 32 32 32 32 32 32 32 32 32 33 33 33 34 34 34 34 35 36 36 36 36 37 37 38 38 39 39 40 40 40
39 39 39 39 40 41 38 39 38 35 34 33 33 33 33 33 33 33 33 33 33 32 32 32 32 32 32 33 33 33 33 34 34 34 35 36 36 36 36 37 37 38 39 39 40 40 40 39 40
40 40 39 40 41 41 38 39 38 35 34 33 33 33 33 33 33 33 33 33 33 33 33 33 33 33 33 33 33 33 34 34 34 35 35 36 36 36 36 37 38 39 39 40 40 40 40 40 39
40 39 40 40 40 40 39 39 37 35 35 33 33 33 33 33 33 33 33 33 33 33 33 33 33 33 33 33 33 34 34 34 35 35 35 36 36 36 37 37 38 38 39 39 40 39 39 38 38
39 39 38 38 39 39 39 38 37 36 35 33 33 33 32 32 33 33 33 33 33 33 33 33 33 33 33 34 34 34 35 35 35 35 35 36 37 37 37 37 37 38 38 38 38 37 36 36 36
38 37 37 37 37 37 37 36 35 34 34 33 33 32 32 32 32 32 33 32 33 33 33 33 34 34 34 34 34 35 35 35 35 35 36 37 37 37 37 37 37 37 37 37 36 35 34 34 34
37 38 38 37 37 36 35 35 33 33 34 34 33 32 32 31 31 32 32 32 32 33 33 33 33 33 33 34 35 35 35 35 35 35 36 36 37 37 36 36 36 36 35 35 34 34 34 33 33
36 37 38 37 36 35 35 34 33 32 32 33 33 32 32 31 31 31 31 31 32 32 32 32 32 32 33 34 34 34 34 34 35 35 36 36 36 36 35 35 35 34 34 33 33 33 32 32 31
Wind_Direction
235 235 235 235 236 237 238 238 239 238 239 239 239 240 241 242 243 246 245 243 243 243 245 246 247 249 250 252 254 255 256 257 259 260 261 262 263 265 267 269 270 271 273 274 276 277 278 279 279
235 235 235 236 237 238 238 239 240 239 238 238 238 238 239 241 243 245 245 243 243 244 245 247 249 251 252 253 255 256 257 258 260 262 263 264 266 266 267 268 269 271 273 274 275 276 277 278 278
235 235 236 236 237 238 239 239 239 238 238 237 238 238 238 241 243 244 246 245 244 245 246 247 249 251 253 255 256 258 259 260 261 262 263 264 266 266 267 268 269 271 272 273 274 275 276 277 277
234 235 236 236 236 237 239 240 239 239 239 238 238 238 239 240 242 243 244 244 244 245 247 248 250 252 254 256 258 259 260 261 262 263 264 265 266 267 268 270 271 272 272 273 274 274 275 276 276
234 235 236 236 236 237 238 240 240 239 239 239 239 239 239 240 240 241 243 244 245 246 248 249 251 253 254 256 258 259 260 261 262 263 264 265 265 266 268 270 271 272 274 274 274 275 275 276 276
235 235 236 236 236 236 238 239 240 239 239 239 239 239 240 239 240 241 243 244 246 247 249 251 252 253 254 256 258 259 260 261 263 264 265 265 266 267 269 271 272 272 273 274 275 276 276 276 276
235 235 236 235 235 234 236 237 238 239 239 239 239 239 240 239 240 241 242 244 246 247 249 251 252 253 255 257 258 259 261 262 263 264 265 267 268 269 271 272 273 274 275 275 276 276 277 277 277
235 235 234 235 235 234 236 237 238 238 239 239 240 240 240 240 240 241 243 244 246 247 249 250 252 253 255 257 258 259 261 262 263 265 266 268 269 270 272 273 274 275 275 276 276 276 276 276 277
233 233 233 233 235 234 236 237 237 238 239 240 241 241 242 241 241 242 243 244 246 247 249 250 252 254 256 257 258 260 262 263 265 267 268 270 270 271 272 273 274 276 276 276 276 276 276 276 276
233 233 232 233 235 236 236 237 238 238 239 240 242 242 242 242 242 243 244 245 246 248 250 252 253 255 257 259 260 262 264 265 267 269 270 272 273 273 274 275 276 276 277 277 277 277 277 276 275
233 233 233 233 235 236 237 237 237 239 240 241 242 242 242 242 242 243 245 247 248 250 251 252 254 255 258 259 261 263 265 266 268 270 271 273 274 275 276 276 277 277 278 278 278 277 277 276 274
233 233 233 234 236 236 237 237 238 240 241 242 243 243 243 244 244 245 247 248 249 251 252 253 254 256 258 260 262 264 266 268 269 270 272 273 275 277 277 277 278 278 278 278 278 278 277 277 276
233 233 234 235 237 238 238 238 239 240 242 243 244 244 245 246 246 246 247 248 250 251 252 254 255 257 259 261 263 265 267 268 269 271 273 274 276 278 278 278 279 279 278 277 277 277 277 277 277
234 233 234 235 237 239 240 240 241 241 243 243 244 245 246 247 247 247 247 249 250 251 253 255 257 258 259 261 263 265 268 270 272 273 274 276 278 279 280 280 280 280 279 278 278 278 277 277 277
234 234 235 236 238 239 241 241 242 242 243 244 245 245 246 247 247 248 248 249 250 252 253 255 257 258 260 262 264 266 269 271 273 274 275 277 278 279 280 281 281 280 280 279 279 279 279 278 277
235 235 236 236 238 239 241 241 241 243 243 244 245 245 246 247 248 248 249 250 251 252 254 256 257 260 261 263 264 267 270 272 274 275 276 278 279 280 281 282 282 281 281 281 281 280 280 279 278
234 236 237 237 238 239 241 241 240 242 243 243 244 245 246 247 248 248 249 250 251 253 254 257 258 260 261 263 266 268 270 272 274 276 277 278 280 281 283 283 282 282 282 282 282 282 281 281 279
236 237 238 238 238 239 240 241 240 241 243 243 244 245 246 247 248 249 249 250 252 254 255 257 259 261 262 265 267 269 271 273 276 277 278 279 281 282 284 284 283 283 283 283 283 283 282 282 281
237 238 238 239 238 240 240 240 239 241 243 244 245 246 247 247 248 249 250 251 253 255 256 258 260 261 264 266 268 270 272 274 277 278 279 280 281 283 284 284 284 285 285 285 285 285 285 284 283
236 237 238 239 238 240 240 239 239 240 242 244 245 246 247 247 248 249 250 252 254 255 257 258 261 263 265 267 268 270 273 275 276 277 279 281 282 283 285 285 285 285 286 286 286 286 286 285 284
236 237 238 239 239 240 241 239 239 240 241 243 244 245 246 247 248 249 251 253 255 256 257 259 261 264 266 268 270 272 274 275 276 278 281 282 283 284 285 285 286 286 286 287 287 287 287 287 287
235 236 238 239 239 239 241 242 238 240 242 243 244 244 246 248 249 250 252 254 255 256 258 260 262 264 266 268 271 273 275 275 277 278 280 282 284 285 285 285 286 286 287 288 289 289 289 288 288
235 235 237 239 240 240 240 244 241 241 242 243 244 245 246 248 249 250 252 254 255 257 258 260 262 265 267 270 273 275 275 276 277 279 281 283 284 284 284 285 286 287 287 289 291 290 290 291 290
234 236 237 239 240 240 240 245 244 243 243 244 244 245 246 247 249 250 251 253 255 256 259 261 263 265 268 271 273 275 275 276 278 279 280 282 283 283 283 285 286 288 288 289 290 291 291 291 291
233 234 236 238 240 241 242 245 245 244 244 244 245 247 247 248 249 251 252 253 255 257 259 262 263 266 269 271 273 275 275 276 277 279 281 283 283 283 284 286 287 288 289 289 290 290 291 292 292
233 234 236 239 241 242 242 245 244 245 246 246 246 246 248 248 249 250 252 253 255 257 259 262 264 266 269 271 274 275 275 276 277 280 282 283 284 284 285 287 288 289 289 290 290 291 291 292 293
231 232 235 239 242 243 243 243 244 244 246 246 245 245 247 249 249 251 252 254 256 258 260 262 264 266 269 271 273 275 275 276 278 280 282 284 285 285 287 288 288 289 290 291 291 292 291 292 292
230 231 232 234 238 242 244 243 243 243 245 245 246 246 247 249 250 251 252 254 256 258 260 263 265 267 269 271 273 275 276 277 278 281 283 284 284 286 287 287 289 290 291 291 292 291 291 292 293
228 228 230 233 236 239 241 241 241 242 243 245 246 246 247 249 250 251 252 254 256 259 261 263 265 267 270 272 274 276 276 277 279 281 283 285 286 286 287 287 288 290 291 291 291 291 291 293 294
230 228 229 231 233 235 239 240 239 241 243 245 246 246 248 250 250 251 252 254 256 259 261 263 265 267 270 272 274 276 277 279 281 282 284 286 286 286 286 286 288 289 290 291 291 291 292 293 293